Regional Weather Roundup
Issued by NWS

Home | Current Version | Previous Version | Text Only | Print | Product List | Glossary Off
Versions: 1 2 3 4 5 6 7 8 9 10 11 12 13 14 15 16 17 18 19 20 21 22 23 24 25 26 27 28 29 30 31 32 33 34 35 36 37 38 39 40 41 42 43 44 45 46 47 48 49 50

340
ASUS45 KTFX 020110
RWRMT
MONTANA REGIONAL WEATHER ROUNDUP
NATIONAL WEATHER SERVICE GREAT FALLS MT
600 PM MST THU DEC 01 2016

NOTE: "FAIR" INDICATES FEW OR NO CLOUDS BELOW 12000 FEET WITH NO
SIGNIFICANT WEATHER AND/OR OBSTRUCTIONS TO VISIBILITY.

MTZ001>007-043-020200-
WEST OF THE DIVIDE

CITY           SKY/WX    TMP DP  RH WIND       PRES   REMARKS
KALISPELL      LGT SNOW  33  32  96 CALM      30.09R FOG
MISSOULA       LGT SNOW  32  32 100 NW3       30.13R FOG
BUTTE          CLOUDY    27  18  69 NW7       30.02R WCI  19
MULLAN PASS    LGT SNOW  22  20  92 NW3       30.04R VSB 3/4
ANACONDA         N/A     28  21  74 SW7       30.04R WCI  21
DEER LODGE       N/A     28  27  93 CALM      30.06R
EUREKA           N/A     30  28  93 CALM      30.12R
HAMILTON         N/A     34  23  64 CALM      30.11R
LIBBY            N/A     34  32  93 CALM      30.11R
PLAINS           N/A     37  27  68 NW3       30.13R
RONAN            N/A     33  30  89 CALM      30.13R
THOMPSON FALLS   N/A     35  31  86 CALM      30.19R
$$

MTZ008-052>055-020200-
SOUTHWEST MONTANA

CITY           SKY/WX    TMP DP  RH WIND       PRES   REMARKS
BOZEMAN        FLURRIES  30  27  88 SE3       30.05R
DILLON         CLOUDY    29  16  58 SW7       30.01R WCI  22
W YELLOWSTONE  CLOUDY    19  16  86 SW10G16   29.99R WCI   8
ENNIS          CLOUDY    28  23  80 E6        30.06R HAZE    WCI  22
THREE FORKS      N/A     32   1  26 E1        30.03R
TWIN BRIDGES     N/A     29  20  69 E5        30.01R
$$

MTZ009-010-012-014-046-048-049-054-020200-
EAST SLOPES AND CENTRAL MONTANA

CITY           SKY/WX    TMP DP  RH WIND       PRES   REMARKS
CUT BANK       LGT SNOW  30  28  92 NW13      30.00R FOG     WCI  20
GREAT FALLS    LGT SNOW  30  29  96 NW3       30.02R FOG
MALMSTROM AFB  LGT RAIN  31  31 100 N3        30.02R
HELENA         CLOUDY    35  21  56 W12       30.03R WCI  27
AUGUSTA        FLURRIES  28  28  99 N7        29.99R WCI  21
BOWMANS CRNR   FLURRIES  28  27  96 N7        29.98R WCI  21
CHOTEAU          N/A     30  30 100 CALM      30.03R FOG
CONRAD           N/A     31  31 100 NW3       30.03R
FAIRFIELD      LGT SNOW  29  27  91 N3        30.01R
POWER          FLURRIES  28  27  98 NW7       30.01R WCI  20
RAYNESFORD     LGT SNOW  30  30  97 W5        30.00R
ULM            LGT SNOW  31  31  99 N13       30.02R WCI  22
$$

MTZ011-013-016-021-045-047-050-051-020200-
NORTH CENTRAL MONTANA

CITY           SKY/WX    TMP DP  RH WIND       PRES   REMARKS
HAVRE          LGT SNOW  31  30  96 CALM      30.01R FOG
LEWISTOWN      CLOUDY    30  26  85 NW7       29.98R WCI  23
N BAR RANCH    MOCLDY    27  21  80 W6        29.97R WCI  20
CHINOOK          N/A     30  30 100 W3        30.01S
DENTON           N/A     29  27  92 W14G22    29.96R WCI  18
GEYSER         MOCLDY    28  26  91 W1        29.98R
GRASS RANGE    MOCLDY    31  22  68 W10       29.95R WCI  22
JUDITH GAP     FLURRIES  26  24  90 N7        29.97R WCI  19
ROY            MOCLDY    29  22  76 MISG      29.96R
STANFORD         N/A     23  23 100 NW7       29.98R WCI  15
WINIFRED       MOCLDY    30  24  76 MISG      29.98R
$$

MTZ017>020-022>027-061-062-020200-
NORTHEAST MONTANA

CITY           SKY/WX    TMP DP  RH WIND       PRES   REMARKS
GLASGOW        CLOUDY    26  22  84 E8        29.98R WCI  18
JORDAN           N/A     26  21  81 CALM      29.96R
SIDNEY         CLOUDY    25  23  92 CALM      30.03S
WOLF POINT     CLOUDY    27  23  85 E7        30.01R WCI  19
SCOBEY           N/A     24  17  74 CALM      29.97R
$$

MTZ028>42-056>058-020200-
SOUTHCENTRAL AND SOUTHEAST MONTANA

CITY           SKY/WX    TMP DP  RH WIND       PRES   REMARKS
BAKER          CLOUDY    20  17  88 SE3       29.98R
BILLINGS       PTCLDY    33  19  56 W12       29.97R WCI  24
LIVINGSTON     CLOUDY    32  23  69 W14       29.99R WCI  22
MILES CITY     CLOUDY    25  19  78 SE6       29.98R WCI  18
BIG TIMBER     CLOUDY    32  23  69 W24       29.99R WCI  19
EKALAKA          N/A     25  16  68 CALM      29.93R
FORSYTH          N/A     28  27  93 CALM      29.97R
HARLOWTON      MOCLDY    29  22  75 NW14      29.98R WCI  18
LAUREL           N/A     34  13  42 W8        29.96R WCI  27
ROUNDUP          N/A     37  16  43 MISG      29.89R
$$

REGIONAL REPORTS...DAKOTAS

CITY           SKY/WX    TMP DP  RH WIND       PRES   REMARKS
WILLISTON      CLOUDY    29  24  82 SE3       30.03R
MINOT          CLOUDY    28  22  78 CALM      30.05R
DICKINSON      CLOUDY    25  22  88 CALM      29.99R
BEACH          CLOUDY    23  23 100 SE6       30.02R WCI  16
CROSBY         CLOUDY    28  27  93 S7        30.05S WCI  21
TIOGA          CLOUDY    27  27 100 S5        30.04R
WATFORD CITY   CLOUDY    27  25  93 SE3       30.03R
BISMARCK       CLOUDY    29  25  85 NE5       30.06R
GRAND FORKS    CLOUDY    29  23  78 N10       30.05R WCI  20
FARGO          CLOUDY    30  24  78 N13       30.04R WCI  20
BUFFALO SD       N/A     26  23  88 E6        29.91R WCI  19
RAPID CITY     CLEAR     21  17  84 N6        29.98R WCI  13
$$

REGIONAL REPORTS...WYOMING/IDAHO/WASHINGTON

CITY           SKY/WX    TMP DP  RH WIND       PRES   REMARKS
GILLETTE       CLOUDY    27  23  85 W3        29.94S
SHERIDAN       CLOUDY    32  23  69 W5        29.96R
BUFFALO WY     CLOUDY    36  19  50 SW8       29.96R WCI  30
CODY           CLOUDY    27  19  72 N3        29.97R
YELLOWSTONE LA   N/A     15  12  88 CALM      29.96R
IDAHO FALLS    CLOUDY    25  20  81 SW7       30.08R WCI  17
SALMON         CLOUDY    28  23  80 CALM      30.10R
BOISE          PTCLDY    34  26  72 NW10      30.18R WCI  26
SPOKANE        CLOUDY    33  31  92 W7        30.18R WCI  27
$$

REGIONAL REPORTS...ALBERTA

CITY           SKY/WX    TMP DP  RH WIND       PRES   REMARKS
CALGARY        MOCLDY    30  25  80 NW12      30.00R WCI  21
LETHBRIDGE     FLURRIES  32  28  86 NW6       30.02R WCI  26
MEDICINE HAT   CLOUDY    25  19  80 NW7       30.03R WCI  17
WATERTON GATE    N/A     32  23  69 SW9         N/A  WCI  24
CARDSTON         N/A     30  28  93 W3          N/A
MILK RIVER       N/A     28  28 100 NW5         N/A
ONEFOUR          N/A     28  28 100 W7          N/A  WCI  21
$$

REGIONAL REPORTS...SASKATCHEWAN

CITY           SKY/WX    TMP DP  RH WIND       PRES   REMARKS
SWIFT CURRENT  CLOUDY    21  21 100 NW12      29.97R WCI   9
REGINA         CLOUDY    28  27  93 SE9       30.01S WCI  20
SASKATOON      CLOUDY    27  23  86 NW3       30.04R
VAL MARIE        N/A     28  25  86 SW1         N/A
ROCKGLEN         N/A     25  23  93 SW2         N/A
ASSINIBOIA       N/A     23  21  93 NW2         N/A
$$




USA.gov is the U.S. government's official web portal to all federal, state and local government web resources and services.